Regional Weather Roundup
Issued by NWS Little Rock, AR

Home | Current Version | Previous Version | Text Only | Print | Product List | Glossary Off
Versions: 1 2 3 4 5 6 7 8 9 10 11 12 13 14 15 16 17 18 19 20 21 22 23 24 25 26 27 28 29 30 31 32 33 34 35 36 37 38 39 40 41 42 43 44 45 46 47 48 49 50

000
ASUS44 KLZK 300505
RWRLZK

WEATHER ROUNDUP FOR ARKANSAS
NATIONAL WEATHER SERVICE LITTLE ROCK AR
1200 AM CDT MON MAR 30 2015

NOTE: "FAIR" INDICATES FEW OR NO CLOUDS BELOW 12,000 FEET WITH NO
SIGNIFICANT WEATHER AND/OR OBSTRUCTIONS TO VISIBILITY.

ARZ001-003-010-029-300600-
NORTHWEST ARKANSAS

CITY           SKY/WX    TMP DP  RH WIND       PRES   REMARKS
FAYETTEVILLE   CLEAR     44  43  96 CALM      30.16S
FORT SMITH     CLEAR     52  45  77 CALM      30.14S
HARRISON       CLEAR     53  42  66 W5        30.14S
BENTONVILLE    CLEAR     46  39  76 N5        30.17R
ROGERS         CLEAR     47  43  86 NW3       30.18R
SILOAM SPGS    CLEAR     46  39  76 N3        30.17S
HIGHFILL       CLEAR     46  41  82 N5        30.16R
$$

ARZ004-005-016-300600-
NORTH CENTRAL ARKANSAS

CITY           SKY/WX    TMP DP  RH WIND       PRES   REMARKS
BATESVILLE     MOCLDY    57  48  72 NW5       30.10S
FLIPPIN        CLEAR     54  41  62 N3        30.13S
MTN HOME       CLEAR     52  44  74 NW3       30.12R
$$

ARZ040-041-300600-
WEST CENTRAL ARKANSAS

CITY           SKY/WX    TMP DP  RH WIND       PRES   REMARKS
MENA           PTCLDY    64  46  52 NW5       30.13S
MOUNT IDA      MOCLDY    63  48  58 CALM      30.09R
$$

ARZ009-017-025-026-028-300600-
NORTHEAST ARKANSAS

CITY           SKY/WX    TMP DP  RH WIND       PRES   REMARKS
CORNING          N/A     54  50  87 N5        30.10F
JONESBORO      CLOUDY    55  51  86 N5        30.08R
NEWPORT        CLOUDY    54  52  93 N7        30.10R
BLYTHEVILLE    CLOUDY    53  52  96 N6        30.07F
$$

ARZ022-023-033-042-044-300600-
CENTRAL ARKANSAS

CITY           SKY/WX    TMP DP  RH WIND       PRES   REMARKS
LITTLE ROCK    MOCLDY    64  48  56 NW9       30.09R
N LITTLE ROCK  MOCLDY    64  52  66 N8        30.09R
JACKSONVILLE   CLOUDY    64  49  59 NW6       30.08R
SEARCY         CLOUDY    60  54  80 NW3       30.10R
HOT SPRINGS    CLOUDY    63  50  62 CALM      30.10R
RUSSELLVILLE   MOCLDY    55  51  86 N3        30.11R
CLINTON        FAIR      59  46  63 NW7       30.13R
$$

ARZ036-300600-
EAST ARKANSAS

CITY           SKY/WX    TMP DP  RH WIND       PRES   REMARKS
WEST MEMPHIS   LGT RAIN  57  56  96 N6        30.03F
$$

ARZ050-053-066-070-073-300600-
SOUTHWEST ARKANSAS

CITY           SKY/WX    TMP DP  RH WIND       PRES   REMARKS
ARKADELPHIA    FAIR      64  59  84 N3        30.09R
CAMDEN         PTCLDY    70  55  60 MISG      30.06S
TEXARKANA      MOCLDY    69  56  62 SW8       30.08R
EL DORADO      PTCLDY    68  57  68 S12       30.09S
DE QUEEN       MOCLDY    66  50  56 E6        30.08R
$$

ARZ056-057-069-300600-
SOUTHEAST ARKANSAS

CITY           SKY/WX    TMP DP  RH WIND       PRES   REMARKS
PINE BLUFF     CLOUDY    66  56  70 NW10      30.07R
STUTTGART      MOCLDY    59  54  82 NE3       30.05S
MONTICELLO     MOCLDY    68  56  65 SW10      30.06F

$$





USA.gov is the U.S. government's official web portal to all federal, state and local government web resources and services.